| time (UTC) | temp C | wind direction | speed KPH | gust KPH | rain 1hr cm | rain 24hr cm | rain mn cm | humidity % | barometer mb |
| 20260904181908 | 34 | 52 | 1.6 | 4.8 | 0.00 | 0.94 | 0.79 | 54 | 1013.6 |
| 20260904181407 | 33 | 39 | 1.6 | 6.4 | 0.00 | 0.94 | 0.79 | 57 | 1013.7 |
| 20260904180907 | 34 | 322 | 1.6 | 6.4 | 0.00 | 0.94 | 0.79 | 54 | 1013.8 |
| 20260904180408 | 33 | 241 | 1.6 | 3.2 | 0.00 | 0.94 | 0.79 | 55 | 1013.8 |
| 20260904175906 | 33 | 142 | 1.6 | 8.0 | 0.00 | 0.94 | 0.79 | 58 | 1013.8 |
| 20260904175630 | 33 | 51 | 1.6 | 8.0 | 0.00 | 0.94 | 0.79 | 58 | 1013.9 |
| 20260904175352 | 32 | 226 | 1.6 | 4.8 | 0.00 | 0.94 | 0.79 | 56 | 1013.8 |
| 20260904174406 | 33 | 313 | 1.6 | 4.8 | 0.00 | 0.94 | 0.79 | 54 | 1013.9 |
| 20260904173903 | 33 | 38 | 1.6 | 6.4 | 0.00 | 0.94 | 0.79 | 56 | 1014.0 |
| 20260904173403 | 33 | 313 | 3.2 | 6.4 | 0.00 | 0.94 | 0.79 | 57 | 1014.0 |
| 20260904172904 | 33 | 95 | 3.2 | 6.4 | 0.00 | 0.94 | 0.79 | 59 | 1014.0 |
| 20260904172406 | 32 | 202 | 3.2 | 11.3 | 0.00 | 0.94 | 0.79 | 57 | 1014.1 |
| 20260904171903 | 33 | 84 | 1.6 | 11.3 | 0.00 | 0.94 | 0.79 | 57 | 1014.2 |
| 20260904171402 | 32 | 159 | 1.6 | 8.0 | 0.00 | 0.94 | 0.79 | 58 | 1014.2 |
| 20260904170902 | 32 | 296 | 1.6 | 4.8 | 0.00 | 0.94 | 0.79 | 59 | 1014.2 |
| 20260904170402 | 32 | 276 | 3.2 | 6.4 | 0.00 | 0.94 | 0.79 | 60 | 1014.2 |
| 20260904165902 | 32 | 248 | 1.6 | 6.4 | 0.00 | 0.94 | 0.79 | 59 | 1014.2 |
| 20260904165623 | 32 | 131 | 1.6 | 6.4 | 0.00 | 0.94 | 0.79 | 56 | 1014.3 |
| 20260904165131 | 32 | 289 | 3.2 | 6.4 | 0.00 | 0.94 | 0.79 | 59 | 1014.3 |
| 20260904164400 | 32 | 71 | 3.2 | 9.7 | 0.00 | 0.94 | 0.79 | 58 | 1014.3 |
| 20260904163857 | 32 | 53 | 3.2 | 9.7 | 0.00 | 0.94 | 0.79 | 61 | 1014.5 |
| 20260904163626 | 32 | 60 | 3.2 | 9.7 | 0.00 | 0.94 | 0.79 | 60 | 1014.5 |
| 20260904162900 | 32 | 121 | 1.6 | 9.7 | 0.00 | 0.94 | 0.79 | 62 | 1014.6 |
| 20260904162359 | 31 | 145 | 1.6 | 9.7 | 0.00 | 0.94 | 0.79 | 64 | 1014.7 |
| 20260904161857 | 31 | 257 | 1.6 | 8.0 | 0.00 | 0.94 | 0.79 | 63 | 1014.6 |
| 20260904161358 | 31 | 107 | 1.6 | 8.0 | 0.00 | 0.94 | 0.79 | 64 | 1014.7 |
| 20260904160858 | 31 | 101 | 1.6 | 14.5 | 0.00 | 0.94 | 0.79 | 66 | 1014.7 |
| 20260904160719 | 31 | 174 | 3.2 | 14.5 | 0.00 | 0.94 | 0.79 | 62 | 1014.7 |
| 20260904160626 | 31 | 54 | 1.6 | 11.3 | 0.00 | 0.94 | 0.79 | 66 | 1014.6 |
| 20260904155352 | 30 | 239 | 1.6 | 11.3 | 0.00 | 0.94 | 0.79 | 68 | 1014.6 |
| 20260904155102 | 30 | 34 | 1.6 | 11.3 | 0.00 | 0.94 | 0.79 | 67 | 1014.5 |
| 20260904154339 | 30 | 117 | 1.6 | 8.0 | 0.00 | 0.94 | 0.79 | 68 | 1014.6 |
| 20260904153834 | 30 | 264 | 1.6 | 8.0 | 0.00 | 0.94 | 0.79 | 69 | 1014.7 |
| 20260904153328 | 28 | 150 | 1.6 | 11.3 | 0.00 | 0.94 | 0.79 | 73 | 1014.8 |
| 20260904152822 | 28 | 61 | 1.6 | 11.3 | 0.00 | 0.94 | 0.79 | 75 | 1014.8 |
| 20260904152805 | 28 | 51 | 1.6 | 6.4 | 0.00 | 0.94 | 0.79 | 74 | 1014.8 |
| 20260904151810 | 28 | 270 | 1.6 | 6.4 | 0.00 | 0.94 | 0.79 | 74 | 1014.7 |
| 20260904151304 | 28 | 78 | 1.6 | 9.7 | 0.00 | 0.94 | 0.79 | 75 | 1014.7 |
| 20260904150757 | 27 | 284 | 0.0 | 4.8 | 0.00 | 0.94 | 0.79 | 79 | 1014.8 |
| 20260904150252 | 27 | 149 | 0.0 | 4.8 | 0.00 | 0.94 | 0.79 | 76 | 1014.8 |
| 20260904145746 | 27 | 315 | 1.6 | 4.8 | 0.00 | 0.94 | 0.79 | 76 | 1014.8 |
| 20260904145240 | 27 | 329 | 1.6 | 8.0 | 0.00 | 0.94 | 0.79 | 78 | 1014.8 |
| 20260904144735 | 27 | 292 | 1.6 | 8.0 | 0.00 | 0.94 | 0.79 | 79 | 1014.9 |
| 20260904144449 | 26 | 246 | 1.6 | 6.4 | 0.00 | 0.94 | 0.79 | 81 | 1014.9 |
| 20260904143722 | 26 | 81 | 1.6 | 6.4 | 0.00 | 0.94 | 0.79 | 83 | 1014.9 |
| 20260904143216 | 26 | 261 | 1.6 | 6.4 | 0.00 | 0.94 | 0.79 | 85 | 1014.9 |
| 20260904142710 | 25 | 66 | 1.6 | 6.4 | 0.00 | 0.94 | 0.79 | 89 | 1014.9 |
| 20260904142204 | 24 | 44 | 0.0 | 3.2 | 0.00 | 0.94 | 0.79 | 95 | 1014.9 |
| 20260904141658 | 23 | 21 | 0.0 | 4.8 | 0.00 | 0.94 | 0.79 | 97 | 1014.9 |
| 20260904141153 | 23 | 59 | 0.0 | 4.8 | 0.00 | 0.94 | 0.79 | 96 | 1014.9 |
| 20260904140913 | 23 | 33 | 1.6 | 4.8 | 0.00 | 0.94 | 0.79 | 97 | 1014.9 |
| 20260904140140 | 23 | 56 | 1.6 | 4.8 | 0.00 | 0.94 | 0.79 | 97 | 1014.9 |
| 20260904135634 | 23 | 65 | 1.6 | 4.8 | 0.00 | 0.94 | 0.79 | 97 | 1014.9 |
| 20260904135128 | 23 | 59 | 0.0 | 4.8 | 0.00 | 0.94 | 0.79 | 97 | 1014.9 |
| 20260904134622 | 23 | 45 | 0.0 | 1.6 | 0.00 | 0.94 | 0.79 | 97 | 1015.0 |
| 20260904134117 | 23 | 45 | 0.0 | 3.2 | 0.00 | 0.94 | 0.79 | 97 | 1015.0 |
| 20260904133835 | 23 | 45 | 0.0 | 3.2 | 0.00 | 0.94 | 0.79 | 97 | 1014.9 |
| 20260904133324 | 23 | 45 | 0.0 | 0.0 | 0.00 | 0.94 | 0.79 | 96 | 1015.0 |
| 20260904132558 | 23 | 45 | 0.0 | 1.6 | 0.00 | 0.94 | 0.79 | 97 | 1015.0 |
| 20260904132053 | 22 | 45 | 0.0 | 3.2 | 0.00 | 0.94 | 0.79 | 97 | 1015.0 |
| 20260904131547 | 22 | 45 | 1.6 | 3.2 | 0.00 | 0.94 | 0.79 | 97 | 1015.0 |
| 20260904131039 | 22 | 68 | 0.0 | 1.6 | 0.00 | 0.94 | 0.79 | 96 | 1015.0 |
| 20260904130758 | 22 | 68 | 0.0 | 1.6 | 0.00 | 0.94 | 0.79 | 96 | 1015.1 |
| 20260904130028 | 22 | 68 | 0.0 | 3.2 | 0.00 | 0.94 | 0.79 | 96 | 1015.2 |
| 20260904125522 | 22 | 68 | 0.0 | 3.2 | 0.00 | 0.94 | 0.79 | 96 | 1015.2 |
| 20260904125016 | 21 | 68 | 0.0 | 3.2 | 0.00 | 0.94 | 0.79 | 96 | 1015.2 |
| 20260904125003 | 21 | 68 | 0.0 | 3.2 | 0.00 | 0.94 | 0.79 | 96 | 1015.2 |
| 20260904124455 | 21 | 66 | 0.0 | 3.2 | 0.00 | 0.94 | 0.79 | 96 | 1015.2 |
| 20260904123719 | 21 | 84 | 0.0 | 1.6 | 0.00 | 0.94 | 0.79 | 96 | 1015.2 |
| 20260904122952 | 21 | 84 | 0.0 | 1.6 | 0.00 | 0.94 | 0.79 | 96 | 1015.1 |
| 20260904122446 | 21 | 84 | 0.0 | 1.6 | 0.00 | 0.94 | 0.79 | 96 | 1015.0 |
| 20260904121941 | 21 | 84 | 0.0 | 3.2 | 0.00 | 0.94 | 0.79 | 96 | 1015.0 |
| 20260904121434 | 21 | 84 | 1.6 | 3.2 | 0.00 | 0.94 | 0.79 | 96 | 1014.9 |
| 20260904120928 | 21 | 113 | 1.6 | 6.4 | 0.00 | 0.94 | 0.79 | 96 | 1014.8 |
| 20260904120422 | 21 | 82 | 1.6 | 6.4 | 0.00 | 0.94 | 0.79 | 96 | 1014.7 |
| 20260904120135 | 21 | 90 | 1.6 | 6.4 | 0.00 | 0.94 | 0.79 | 96 | 1014.8 |
| 20260904115410 | 21 | 66 | 1.6 | 6.4 | 0.00 | 0.94 | 0.79 | 96 | 1014.9 |
| 20260904114904 | 21 | 81 | 1.6 | 3.2 | 0.00 | 0.94 | 0.79 | 96 | 1014.9 |
| 20260904114405 | 21 | 195 | 1.6 | 3.2 | 0.00 | 0.94 | 0.79 | 96 | 1014.7 |
| 20260904113904 | 21 | 62 | 1.6 | 3.2 | 0.00 | 0.94 | 0.79 | 96 | 1014.8 |
| 20260904113405 | 21 | 43 | 0.0 | 3.2 | 0.00 | 0.94 | 0.79 | 96 | 1014.4 |
| 20260904112901 | 21 | 43 | 0.0 | 3.2 | 0.00 | 0.94 | 0.79 | 96 | 1014.3 |
| 20260904112402 | 21 | 37 | 0.0 | 3.2 | 0.00 | 0.94 | 0.79 | 96 | 1014.4 |
| 20260904111901 | 21 | 89 | 0.0 | 1.6 | 0.00 | 0.94 | 0.79 | 96 | 1014.4 |
| 20260904111358 | 21 | 89 | 0.0 | 1.6 | 0.00 | 0.94 | 0.79 | 95 | 1014.3 |
| 20260904110858 | 21 | 89 | 0.0 | 1.6 | 0.00 | 0.94 | 0.79 | 95 | 1014.3 |
| 20260904110357 | 21 | 89 | 0.0 | 1.6 | 0.00 | 0.94 | 0.79 | 95 | 1014.2 |
| 20260904105853 | 21 | 89 | 0.0 | 1.6 | 0.00 | 0.94 | 0.79 | 95 | 1014.2 |
| 20260904105352 | 21 | 89 | 0.0 | 1.6 | 0.00 | 0.94 | 0.79 | 95 | 1014.1 |
| 20260904104854 | 21 | 89 | 0.0 | 0.0 | 0.00 | 0.94 | 0.79 | 95 | 1014.1 |
| 20260904104354 | 21 | 89 | 0.0 | 1.6 | 0.00 | 0.94 | 0.79 | 95 | 1014.1 |
| 20260904103854 | 21 | 89 | 0.0 | 1.6 | 0.00 | 0.94 | 0.79 | 95 | 1014.1 |
| 20260904103351 | 21 | 89 | 0.0 | 1.6 | 0.00 | 0.94 | 0.79 | 95 | 1014.0 |
| 20260904102851 | 21 | 89 | 0.0 | 1.6 | 0.00 | 0.94 | 0.79 | 95 | 1013.9 |
| 20260904102352 | 21 | 89 | 0.0 | 1.6 | 0.00 | 0.94 | 0.79 | 95 | 1014.0 |
| 20260904101849 | 21 | 89 | 0.0 | 1.6 | 0.00 | 0.94 | 0.79 | 95 | 1013.9 |
| 20260904101350 | 21 | 89 | 0.0 | 3.2 | 0.00 | 0.94 | 0.79 | 95 | 1013.9 |
| 20260904100848 | 21 | 89 | 0.0 | 3.2 | 0.00 | 0.94 | 0.79 | 95 | 1014.0 |
| 20260904100347 | 21 | 89 | 0.0 | 0.0 | 0.00 | 0.94 | 0.79 | 95 | 1013.9 |
| 20260904095848 | 21 | 89 | 0.0 | 0.0 | 0.00 | 0.94 | 0.79 | 95 | 1013.9 |
| 20260904095612 | 21 | 89 | 0.0 | 0.0 | 0.00 | 0.94 | 0.79 | 95 | 1013.9 |
| 20260904094847 | 21 | 89 | 0.0 | 0.0 | 0.00 | 0.94 | 0.79 | 95 | 1013.8 |
| 20260904094346 | 21 | 89 | 0.0 | 0.0 | 0.00 | 0.94 | 0.79 | 95 | 1013.7 |
| 20260904093847 | 21 | 89 | 0.0 | 0.0 | 0.00 | 0.94 | 0.79 | 95 | 1013.7 |
| 20260904093346 | 21 | 89 | 0.0 | 0.0 | 0.00 | 0.94 | 0.79 | 95 | 1013.5 |
| 20260904092848 | 21 | 89 | 0.0 | 0.0 | 0.00 | 0.94 | 0.79 | 95 | 1013.6 |
| 20260904092344 | 21 | 89 | 0.0 | 0.0 | 0.00 | 0.94 | 0.79 | 95 | 1013.7 |
| 20260904091843 | 21 | 89 | 0.0 | 0.0 | 0.00 | 0.94 | 0.79 | 95 | 1013.6 |
| 20260904091343 | 21 | 89 | 0.0 | 0.0 | 0.00 | 0.94 | 0.79 | 95 | 1013.7 |
| 20260904091101 | 21 | 89 | 0.0 | 0.0 | 0.00 | 0.94 | 0.79 | 95 | 1013.8 |
| 20260904090344 | 21 | 89 | 0.0 | 0.0 | 0.00 | 0.94 | 0.79 | 95 | 1013.7 |
| 20260904085842 | 21 | 89 | 0.0 | 0.0 | 0.00 | 0.94 | 0.79 | 95 | 1013.8 |
| 20260904085344 | 21 | 89 | 0.0 | 0.0 | 0.00 | 0.94 | 0.79 | 95 | 1013.9 |
| 20260904084843 | 21 | 89 | 0.0 | 0.0 | 0.00 | 0.94 | 0.79 | 95 | 1014.0 |
| 20260904084344 | 21 | 89 | 0.0 | 0.0 | 0.00 | 0.94 | 0.79 | 95 | 1013.9 |
| 20260904083839 | 21 | 89 | 0.0 | 0.0 | 0.00 | 0.94 | 0.79 | 95 | 1013.9 |
| 20260904083338 | 21 | 89 | 0.0 | 0.0 | 0.00 | 0.94 | 0.79 | 95 | 1013.8 |
| 20260904082839 | 21 | 89 | 0.0 | 0.0 | 0.00 | 0.94 | 0.79 | 95 | 1013.9 |
| 20260904082601 | 21 | 89 | 0.0 | 0.0 | 0.00 | 0.94 | 0.79 | 94 | 1013.8 |
| 20260904081840 | 21 | 89 | 0.0 | 0.0 | 0.00 | 0.94 | 0.79 | 94 | 1013.7 |
| 20260904081338 | 21 | 89 | 0.0 | 0.0 | 0.00 | 0.94 | 0.79 | 94 | 1013.7 |
| 20260904080838 | 21 | 89 | 0.0 | 0.0 | 0.00 | 0.94 | 0.79 | 94 | 1013.7 |
| 20260904080335 | 21 | 89 | 0.0 | 0.0 | 0.00 | 0.94 | 0.79 | 94 | 1013.8 |
| 20260904080111 | 21 | 89 | 0.0 | 0.0 | 0.00 | 0.94 | 0.79 | 94 | 1013.9 |
| 20260904075334 | 21 | 89 | 0.0 | 0.0 | 0.00 | 0.94 | 0.79 | 94 | 1014.0 |
| 20260904074830 | 21 | 89 | 0.0 | 0.0 | 0.00 | 0.94 | 0.79 | 94 | 1013.9 |
| 20260904074331 | 21 | 89 | 0.0 | 0.0 | 0.00 | 0.94 | 0.79 | 94 | 1013.9 |
| 20260904073832 | 21 | 89 | 0.0 | 0.0 | 0.00 | 0.94 | 0.79 | 94 | 1013.8 |
| 20260904073332 | 21 | 89 | 0.0 | 0.0 | 0.00 | 0.94 | 0.79 | 94 | 1013.8 |
| 20260904072831 | 21 | 89 | 0.0 | 0.0 | 0.00 | 0.94 | 0.79 | 94 | 1013.7 |
| 20260904072331 | 21 | 89 | 0.0 | 0.0 | 0.00 | 0.94 | 0.79 | 94 | 1013.6 |
| 20260904071831 | 21 | 89 | 0.0 | 0.0 | 0.00 | 0.94 | 0.79 | 94 | 1013.7 |
| 20260904071326 | 21 | 89 | 0.0 | 0.0 | 0.00 | 0.94 | 0.79 | 94 | 1013.7 |
| 20260904071048 | 21 | 89 | 0.0 | 0.0 | 0.03 | 0.94 | 0.79 | 94 | 1013.6 |
| 20260904070325 | 21 | 89 | 0.0 | 0.0 | 0.03 | 0.94 | 0.79 | 94 | 1013.6 |
| 20260904065825 | 21 | 89 | 0.0 | 0.0 | 0.03 | 0.94 | 0.79 | 94 | 1013.4 |
| 20260904065543 | 21 | 89 | 0.0 | 0.0 | 0.03 | 0.94 | 0.79 | 94 | 1013.2 |
| 20260904065045 | 21 | 89 | 0.0 | 0.0 | 0.03 | 0.94 | 0.79 | 94 | 1013.5 |
| 20260904064320 | 21 | 89 | 0.0 | 0.0 | 0.03 | 0.94 | 0.79 | 94 | 1013.5 |
| 20260904063818 | 21 | 89 | 0.0 | 0.0 | 0.03 | 0.94 | 0.79 | 94 | 1013.4 |
| 20260904063315 | 21 | 89 | 0.0 | 1.6 | 0.03 | 0.94 | 0.79 | 94 | 1013.5 |
| 20260904062814 | 22 | 89 | 0.0 | 3.2 | 0.05 | 0.94 | 0.79 | 94 | 1013.5 |
| 20260904062312 | 22 | 89 | 0.0 | 3.2 | 0.08 | 0.94 | 0.79 | 94 | 1013.5 |
| 20260904061809 | 22 | 61 | 1.6 | 6.4 | 0.08 | 0.94 | 0.79 | 94 | 1013.5 |
| 20260904061307 | 22 | 301 | 1.6 | 6.4 | 0.10 | 0.94 | 0.79 | 94 | 1013.1 |
| 20260904060806 | 22 | 250 | 0.0 | 3.2 | 0.13 | 0.91 | 0.76 | 93 | 1012.9 |
| 20260904060307 | 22 | 204 | 0.0 | 1.6 | 0.15 | 0.91 | 0.76 | 93 | 1012.9 |
| 20260904055806 | 22 | 204 | 0.0 | 1.6 | 0.20 | 0.91 | 0.76 | 93 | 1013.0 |
| 20260904055530 | 22 | 271 | 0.0 | 1.6 | 0.25 | 0.91 | 0.76 | 93 | 1013.1 |
| 20260904054759 | 22 | 271 | 0.0 | 3.2 | 0.30 | 0.91 | 0.76 | 93 | 1013.1 |
| 20260904054253 | 22 | 232 | 0.0 | 3.2 | 0.38 | 0.91 | 0.76 | 93 | 1013.0 |
| 20260904053747 | 22 | 189 | 0.0 | 3.2 | 0.46 | 0.91 | 0.76 | 93 | 1013.0 |
| 20260904053241 | 22 | 189 | 0.0 | 3.2 | 0.56 | 0.91 | 0.76 | 93 | 1013.5 |
| 20260904052735 | 22 | 121 | 0.0 | 0.0 | 0.61 | 0.89 | 0.74 | 92 | 1013.9 |
| 20260904052228 | 22 | 121 | 0.0 | 0.0 | 0.69 | 0.86 | 0.74 | 92 | 1014.3 |
| 20260904051723 | 22 | 121 | 0.0 | 1.6 | 0.69 | 0.84 | 0.71 | 92 | 1014.9 |
| 20260904051217 | 22 | 121 | 0.0 | 1.6 | 0.69 | 0.84 | 0.69 | 92 | 1015.0 |
| 20260904050711 | 22 | 121 | 0.0 | 1.6 | 0.64 | 0.79 | 0.64 | 92 | 1015.2 |
| 20260904050204 | 22 | 121 | 0.0 | 3.2 | 0.58 | 0.74 | 0.61 | 92 | 1015.5 |
| 20260904045659 | 22 | 121 | 0.0 | 3.2 | 0.56 | 0.71 | 0.56 | 91 | 1015.6 |
| 20260904045651 | 22 | 175 | 0.0 | 1.6 | 0.51 | 0.66 | 0.51 | 91 | 1015.9 |
| 20260904044647 | 22 | 231 | 0.0 | 1.6 | 0.43 | 0.58 | 0.46 | 91 | 1016.0 |
| 20260904044142 | 23 | 231 | 0.0 | 4.8 | 0.36 | 0.51 | 0.38 | 90 | 1016.5 |
| 20260904043636 | 23 | 234 | 1.6 | 8.0 | 0.28 | 0.43 | 0.28 | 90 | 1017.0 |
| 20260904043129 | 23 | 355 | 4.8 | 16.1 | 0.18 | 0.33 | 0.20 | 90 | 1016.9 |
| 20260904042622 | 23 | 338 | 6.4 | 16.1 | 0.10 | 0.25 | 0.10 | 90 | 1016.6 |
| 20260904042117 | 24 | 321 | 4.8 | 16.1 | 0.03 | 0.18 | 0.03 | 90 | 1016.9 |
| 20260904041611 | 25 | 123 | 4.8 | 14.5 | 0.00 | 0.15 | 0.00 | 91 | 1016.1 |
| 20260904041104 | 25 | 273 | 6.4 | 29.0 | 0.00 | 0.15 | 0.00 | 91 | 1016.1 |
| 20260904040559 | 25 | 38 | 4.8 | 29.0 | 0.00 | 0.15 | 0.00 | 92 | 1015.9 |
| 20260904040537 | 25 | 115 | 1.6 | 20.9 | 0.00 | 0.15 | 0.00 | 93 | 1015.9 |
| 20260904035547 | 25 | 88 | 1.6 | 3.2 | 0.03 | 0.15 | 0.15 | 92 | 1015.5 |
| 20260904035043 | 25 | 0 | 0.0 | 3.2 | 0.10 | 0.15 | 0.15 | 92 | 1014.7 |
| 20260904034535 | 25 | 117 | 0.0 | 0.0 | 0.15 | 0.15 | 0.15 | 92 | 1014.3 |
| 20260904034030 | 25 | 117 | 0.0 | 0.0 | 0.15 | 0.15 | 0.15 | 91 | 1014.3 |
| 20260904033522 | 26 | 117 | 0.0 | 0.0 | 0.15 | 0.15 | 0.15 | 91 | 1014.3 |
| 20260904033245 | 26 | 117 | 0.0 | 0.0 | 0.15 | 0.15 | 0.15 | 92 | 1014.3 |
| 20260904032516 | 26 | 117 | 0.0 | 0.0 | 0.15 | 0.15 | 0.15 | 91 | 1014.3 |
| 20260904032006 | 26 | 117 | 0.0 | 1.6 | 0.15 | 0.15 | 0.15 | 91 | 1014.2 |
| 20260904031459 | 26 | 117 | 0.0 | 1.6 | 0.15 | 0.15 | 0.15 | 91 | 1014.1 |
| 20260904030953 | 26 | 117 | 0.0 | 3.2 | 0.15 | 0.15 | 0.15 | 91 | 1014.1 |
| 20260904030653 | 26 | 183 | 1.6 | 3.2 | 0.13 | 0.13 | 0.13 | 91 | 1014.0 |
| 20260904030537 | 26 | 117 | 0.0 | 3.2 | 0.15 | 0.15 | 0.15 | 90 | 1014.2 |
| 20260904025435 | 26 | 148 | 1.6 | 12.9 | 0.10 | 0.10 | 0.13 | 90 | 1014.0 |
| 20260904024931 | 26 | 113 | 1.6 | 12.9 | 0.03 | 0.03 | 0.05 | 91 | 1014.4 |
| 20260904024423 | 26 | 36 | 1.6 | 4.8 | 0.00 | 0.00 | 0.00 | 90 | 1014.6 |
| 20260904023917 | 26 | 306 | 0.0 | 3.2 | 0.00 | 0.00 | 0.00 | 90 | 1014.5 |
| 20260904023411 | 26 | 198 | 0.0 | 0.0 | 0.00 | 0.00 | 0.00 | 90 | 1014.3 |
| 20260904023133 | 26 | 198 | 0.0 | 0.0 | 0.00 | 0.00 | 0.00 | 90 | 1014.2 |
| 20260904023111 | 26 | 198 | 0.0 | 0.0 | 0.00 | 0.00 | 0.00 | 90 | 1014.3 |
| 20260904021854 | 26 | 198 | 0.0 | 0.0 | 0.00 | 0.00 | 0.00 | 90 | 1014.2 |
| 20260904021347 | 26 | 198 | 0.0 | 0.0 | 0.00 | 0.00 | 0.00 | 90 | 1014.2 |
| 20260904020841 | 26 | 198 | 0.0 | 0.0 | 0.00 | 0.00 | 0.00 | 90 | 1014.3 |
| 20260904020554 | 26 | 198 | 0.0 | 0.0 | 0.00 | 0.00 | 0.00 | 90 | 1014.3 |
| 20260904015829 | 27 | 198 | 0.0 | 0.0 | 0.00 | 0.00 | 0.00 | 89 | 1014.4 |
| 20260904015323 | 27 | 198 | 0.0 | 0.0 | 0.00 | 0.00 | 0.00 | 89 | 1014.4 |
| 20260904014817 | 27 | 198 | 0.0 | 0.0 | 0.00 | 0.00 | 0.00 | 89 | 1014.4 |
| 20260904014311 | 27 | 198 | 0.0 | 0.0 | 0.00 | 0.00 | 0.00 | 89 | 1014.4 |
| 20260904013805 | 27 | 198 | 0.0 | 0.0 | 0.00 | 0.00 | 0.00 | 89 | 1014.3 |
| 20260904013300 | 27 | 198 | 0.0 | 0.0 | 0.00 | 0.00 | 0.00 | 89 | 1014.1 |
| 20260904012753 | 27 | 198 | 0.0 | 0.0 | 0.00 | 0.00 | 0.00 | 88 | 1014.1 |
| 20260904012247 | 27 | 198 | 0.0 | 0.0 | 0.00 | 0.00 | 0.00 | 88 | 1014.1 |
| 20260904011740 | 27 | 198 | 0.0 | 0.0 | 0.00 | 0.00 | 0.00 | 88 | 1014.2 |
| 20260904011235 | 27 | 198 | 0.0 | 0.0 | 0.00 | 0.00 | 0.00 | 88 | 1014.2 |
| 20260904010736 | 27 | 198 | 0.0 | 0.0 | 0.00 | 0.00 | 0.00 | 88 | 1014.3 |
| 20260904010232 | 27 | 198 | 0.0 | 0.0 | 0.00 | 0.00 | 0.00 | 87 | 1014.4 |
| 20260904005732 | 27 | 198 | 0.0 | 0.0 | 0.00 | 0.00 | 0.00 | 87 | 1014.4 |
| 20260904005235 | 27 | 198 | 0.0 | 0.0 | 0.00 | 0.00 | 0.00 | 87 | 1014.5 |
| 20260904004730 | 27 | 198 | 0.0 | 0.0 | 0.00 | 0.00 | 0.00 | 86 | 1014.5 |
| 20260904004716 | 27 | 198 | 0.0 | 0.0 | 0.00 | 0.00 | 0.00 | 86 | 1014.7 |
| 20260904003729 | 27 | 198 | 0.0 | 0.0 | 0.00 | 0.00 | 0.00 | 86 | 1014.7 |
| 20260904003229 | 27 | 198 | 0.0 | 0.0 | 0.00 | 0.00 | 0.00 | 86 | 1014.9 |
| 20260904002950 | 28 | 198 | 0.0 | 0.0 | 0.00 | 0.00 | 0.00 | 85 | 1014.9 |
| 20260904002455 | 28 | 198 | 0.0 | 0.0 | 0.00 | 0.00 | 0.00 | 85 | 1014.9 |
| 20260904001721 | 28 | 198 | 0.0 | 0.0 | 0.00 | 0.00 | 0.00 | 85 | 1014.8 |
| 20260904001221 | 28 | 198 | 0.0 | 0.0 | 0.00 | 0.00 | 0.00 | 85 | 1014.8 |
| 20260904000719 | 28 | 198 | 0.0 | 0.0 | 0.00 | 0.00 | 0.00 | 84 | 1014.8 |
| 20260904000218 | 28 | 198 | 0.0 | 0.0 | 0.00 | 0.00 | 0.00 | 84 | 1014.6 |
| 20260903235938 | 28 | 198 | 0.0 | 0.0 | 0.00 | 0.00 | 0.00 | 83 | 1014.7 |
| 20260903235437 | 28 | 198 | 0.0 | 0.0 | 0.00 | 0.00 | 0.00 | 83 | 1014.6 |
| 20260903234716 | 28 | 198 | 0.0 | 0.0 | 0.00 | 0.00 | 0.00 | 83 | 1014.5 |
| 20260903234213 | 28 | 198 | 0.0 | 0.0 | 0.00 | 0.00 | 0.00 | 82 | 1014.5 |
| 20260903233710 | 29 | 198 | 0.0 | 0.0 | 0.00 | 0.00 | 0.00 | 82 | 1014.2 |
| 20260903233210 | 29 | 198 | 0.0 | 0.0 | 0.00 | 0.00 | 0.00 | 82 | 1014.3 |
| 20260903232710 | 29 | 198 | 0.0 | 0.0 | 0.00 | 0.00 | 0.00 | 81 | 1014.2 |
| 20260903232203 | 29 | 198 | 0.0 | 0.0 | 0.00 | 0.00 | 0.00 | 81 | 1014.3 |
| 20260903231657 | 29 | 198 | 0.0 | 0.0 | 0.00 | 0.00 | 0.00 | 81 | 1014.2 |
| 20260903231151 | 30 | 198 | 0.0 | 0.0 | 0.00 | 0.00 | 0.00 | 81 | 1014.3 |
| 20260903230647 | 30 | 198 | 0.0 | 0.0 | 0.00 | 0.00 | 0.00 | 81 | 1014.3 |
| 20260903230139 | 30 | 198 | 0.0 | 0.0 | 0.00 | 0.00 | 0.00 | 80 | 1014.3 |
| 20260903225633 | 30 | 198 | 0.0 | 0.0 | 0.00 | 0.00 | 0.00 | 80 | 1014.2 |
| 20260903225127 | 30 | 198 | 0.0 | 0.0 | 0.00 | 0.00 | 0.00 | 80 | 1014.2 |
| 20260903224621 | 30 | 198 | 0.0 | 1.6 | 0.00 | 0.00 | 0.00 | 79 | 1014.2 |
| 20260903224115 | 30 | 198 | 0.0 | 1.6 | 0.00 | 0.00 | 0.00 | 79 | 1014.0 |
| 20260903223609 | 30 | 201 | 0.0 | 3.2 | 0.00 | 0.00 | 0.00 | 79 | 1014.0 |
| 20260903223103 | 30 | 205 | 0.0 | 3.2 | 0.00 | 0.00 | 0.00 | 78 | 1014.0 |
| 20260903222557 | 30 | 285 | 0.0 | 4.8 | 0.00 | 0.00 | 0.00 | 79 | 1014.0 |
| 20260903222051 | 30 | 182 | 0.0 | 4.8 | 0.00 | 0.00 | 0.00 | 78 | 1013.9 |
| 20260903221545 | 30 | 238 | 0.0 | 3.2 | 0.00 | 0.00 | 0.00 | 78 | 1013.7 |
| 20260903221039 | 31 | 238 | 0.0 | 3.2 | 0.00 | 0.00 | 0.00 | 75 | 1013.7 |
| 20260903220533 | 31 | 257 | 0.0 | 3.2 | 0.00 | 0.00 | 0.00 | 73 | 1013.7 |
| 20260903220254 | 31 | 181 | 1.6 | 9.7 | 0.00 | 0.00 | 0.00 | 74 | 1013.8 |
| 20260903215531 | 31 | 175 | 1.6 | 9.7 | 0.00 | 0.00 | 0.00 | 72 | 1013.9 |
| 20260903215252 | 31 | 139 | 0.0 | 3.2 | 0.00 | 0.00 | 0.00 | 73 | 1013.8 |
| 20260903214533 | 30 | 229 | 0.0 | 4.8 | 0.00 | 0.00 | 0.00 | 73 | 1013.9 |
| 20260903214032 | 30 | 192 | 1.6 | 4.8 | 0.00 | 0.00 | 0.00 | 73 | 1014.0 |
| 20260903213530 | 30 | 242 | 1.6 | 4.8 | 0.00 | 0.00 | 0.00 | 72 | 1014.0 |
| 20260903213030 | 30 | 286 | 1.6 | 4.8 | 0.00 | 0.00 | 0.00 | 72 | 1014.0 |
| 20260903212531 | 30 | 228 | 1.6 | 6.4 | 0.00 | 0.00 | 0.00 | 74 | 1014.0 |
| 20260903212256 | 30 | 242 | 1.6 | 6.4 | 0.00 | 0.00 | 0.00 | 71 | 1014.1 |
| 20260903211529 | 30 | 32 | 1.6 | 4.8 | 0.00 | 0.00 | 0.00 | 72 | 1014.2 |
| 20260903211030 | 30 | 343 | 1.6 | 9.7 | 0.00 | 0.00 | 0.00 | 72 | 1014.3 |
| 20260903210751 | 31 | 215 | 1.6 | 9.7 | 0.00 | 0.00 | 0.00 | 71 | 1014.3 |
| 20260903210250 | 31 | 257 | 1.6 | 8.0 | 0.00 | 0.00 | 0.00 | 72 | 1014.3 |
| 20260903205531 | 31 | 280 | 1.6 | 8.0 | 0.00 | 0.00 | 0.00 | 72 | 1014.3 |
| 20260903205032 | 31 | 264 | 1.6 | 9.7 | 0.00 | 0.00 | 0.00 | 72 | 1014.3 |
| 20260903204529 | 31 | 283 | 1.6 | 9.7 | 0.00 | 0.00 | 0.00 | 71 | 1014.3 |
| 20260903204030 | 31 | 327 | 1.6 | 14.5 | 0.00 | 0.00 | 0.00 | 75 | 1014.5 |
| 20260903203531 | 31 | 345 | 3.2 | 14.5 | 0.00 | 0.00 | 0.00 | 71 | 1014.4 |
| 20260903203026 | 31 | 221 | 1.6 | 8.0 | 0.00 | 0.00 | 0.00 | 73 | 1014.4 |
| 20260903202526 | 31 | 334 | 1.6 | 6.4 | 0.00 | 0.00 | 0.00 | 72 | 1014.5 |
| 20260903202027 | 31 | 271 | 1.6 | 6.4 | 0.00 | 0.00 | 0.00 | 72 | 1014.6 |
| 20260903201526 | 31 | 263 | 3.2 | 6.4 | 0.00 | 0.03 | 0.00 | 71 | 1014.8 |
| 20260903201248 | 31 | 225 | 3.2 | 9.7 | 0.00 | 0.03 | 0.00 | 69 | 1014.8 |
| 20260903200745 | 31 | 115 | 3.2 | 9.7 | 0.00 | 0.03 | 0.00 | 70 | 1014.9 |
| 20260903200027 | 32 | 247 | 1.6 | 6.4 | 0.00 | 0.03 | 0.00 | 68 | 1015.0 |
| 20260903195524 | 32 | 191 | 1.6 | 4.8 | 0.00 | 0.08 | 0.00 | 71 | 1015.1 |
| 20260903195025 | 31 | 355 | 1.6 | 4.8 | 0.00 | 0.10 | 0.00 | 71 | 1015.1 |
| 20260903194524 | 31 | 290 | 1.6 | 6.4 | 0.00 | 0.13 | 0.00 | 71 | 1015.2 |
| 20260903194023 | 31 | 248 | 1.6 | 6.4 | 0.00 | 0.15 | 0.00 | 70 | 1015.3 |
| 20260903193750 | 31 | 295 | 1.6 | 6.4 | 0.00 | 0.23 | 0.00 | 72 | 1015.4 |
| 20260903193020 | 31 | 169 | 1.6 | 6.4 | 0.00 | 0.28 | 0.00 | 73 | 1015.4 |
| 20260903192519 | 31 | 140 | 1.6 | 6.4 | 0.00 | 0.28 | 0.00 | 71 | 1015.6 |
| 20260903192021 | 31 | 121 | 1.6 | 6.4 | 0.00 | 0.28 | 0.00 | 71 | 1015.7 |
| 20260903191517 | 31 | 216 | 1.6 | 6.4 | 0.00 | 0.28 | 0.00 | 69 | 1015.8 |
| 20260903191018 | 31 | 204 | 1.6 | 4.8 | 0.00 | 0.28 | 0.00 | 73 | 1015.7 |
| 20260903190519 | 31 | 115 | 1.6 | 6.4 | 0.00 | 0.28 | 0.00 | 73 | 1015.8 |
| 20260903190019 | 30 | 262 | 1.6 | 6.4 | 0.00 | 0.28 | 0.00 | 74 | 1015.9 |
| 20260903185518 | 30 | 243 | 1.6 | 6.4 | 0.00 | 0.28 | 0.00 | 75 | 1016.0 |
| 20260903185236 | 29 | 45 | 1.6 | 4.8 | 0.00 | 0.28 | 0.00 | 77 | 1016.0 |
| 20260903184731 | 29 | 265 | 1.6 | 4.8 | 0.00 | 0.28 | 0.00 | 76 | 1016.0 |
| 20260903184011 | 29 | 232 | 1.6 | 6.4 | 0.00 | 0.28 | 0.00 | 77 | 1016.1 |
| 20260903183513 | 30 | 317 | 1.6 | 6.4 | 0.00 | 0.28 | 0.00 | 76 | 1016.0 |
| 20260903183013 | 29 | 227 | 1.6 | 6.4 | 0.00 | 0.28 | 0.00 | 77 | 1016.1 |
| 20260903182733 | 29 | 283 | 1.6 | 6.4 | 0.00 | 0.28 | 0.00 | 77 | 1016.2 |
| 20260903182235 | 29 | 263 | 1.6 | 6.4 | 0.00 | 0.28 | 0.00 | 78 | 1016.3 |